FW7644 Weather Reports


time (UTC)temp
F
wind
direction
speed
knots
gust
knots
rain 1hr
in
rain 24hr
in
rain mn
in
humidity
%
barometer
mb
20260831230753 59 0.0 0.0 0.30 1.17 0.84 99 1014.9
20260831230251 59 0.0 0.0 0.28 1.15 0.82 99 1015.2
20260831225750 59 0.0 0.0 0.27 1.16 0.81 99 1015.3
20260831225248 59 0.0 0.0 0.25 1.14 0.79 99 1015.5
20260831224746 59 0.0 0.0 0.23 1.12 0.77 99 1015.5
20260831223749 59 0.0 0.0 0.19 1.08 0.73 99 1016.1
20260831223248 59 0.0 0.0 0.11 1.00 0.65 99 1016.6
20260831222746 59 0.0 0.0 0.03 0.93 0.57 99 1014.9
20260831222245 59 0.0 0.0 0.02 0.92 0.56 99 1014.2
20260831221743 59 0.0 0.0 0.02 0.92 0.56 99 1013.4
20260831221241 59 0.0 0.0 0.01 0.91 0.55 99 1013.6
20260831220739 59 0.0 0.0 0.01 0.91 0.55 99 1013.5
20260831220238 59 0.0 0.0 0.00 0.90 0.54 99 1013.5
20260831215736 59 0.0 0.0 0.00 1.01 0.54 99 1012.9
20260831215235 59 0.0 0.0 0.00 1.01 0.54 99 1012.7
20260831214733 59 0.0 0.0 0.00 1.01 0.54 99 1012.5
20260831214232 59 0.0 0.0 0.00 1.01 0.54 99 1012.4
20260831213730 59 0.0 0.0 0.00 1.01 0.54 99 1012.5
20260831213228 59 0.0 0.0 0.00 1.01 0.54 99 1012.6
20260831212726 59 0.0 0.0 0.00 1.01 0.54 99 1012.6
20260831212225 59 0.0 0.0 0.00 1.01 0.54 99 1012.6
20260831211723 59 0.0 0.0 0.00 1.01 0.54 99 1012.7
20260831211221 59 0.0 0.0 0.00 1.01 0.54 99 1012.6
20260831210720 59 0.0 0.0 0.00 1.01 0.54 99 1012.3
20260831210218 59 0.0 0.0 0.00 1.01 0.54 99 1011.9
20260831205716 59 0.0 0.0 0.00 1.17 0.54 99 1011.8
20260831205214 59 0.0 0.0 0.00 1.17 0.54 99 1012.0
20260831204712 60 0.0 0.0 0.00 1.17 0.54 99 1011.9
20260831204211 60 0.0 0.0 0.00 1.17 0.54 99 1012.2
20260831203709 60 0.0 0.0 0.00 1.17 0.54 99 1011.9
20260831203207 60 0.0 0.0 0.00 1.17 0.54 99 1012.1
20260831202705 60 0.0 0.0 0.00 1.17 0.54 99 1012.4
20260831202204 60 0.0 0.0 0.00 1.17 0.54 99 1012.5
20260831201702 61 0.0 0.0 0.00 1.17 0.54 99 1012.2
20260831201200 61 0.0 0.0 0.00 1.17 0.54 99 1012.2
20260831200658 61 0.0 0.0 0.01 1.17 0.54 99 1012.6
20260831200157 61 0.0 0.0 0.01 1.17 0.54 99 1012.7
20260831195655 61 0.0 0.0 0.01 1.24 0.54 99 1012.6
20260831195153 61 0.0 0.0 0.01 1.24 0.54 99 1012.5
20260831194651 61 0.0 0.0 0.01 1.24 0.54 99 1012.9
20260831194150 61 0.0 0.0 0.01 1.24 0.54 99 1012.8
20260831193648 61 0.0 0.0 0.01 1.24 0.54 99 1012.9
20260831193146 61 0.0 0.0 0.01 1.24 0.54 99 1013.3
20260831192645 61 0.0 0.0 0.01 1.24 0.54 99 1013.2
20260831192143 61 0.0 0.0 0.01 1.24 0.54 99 1013.3
20260831191641 60 0.0 0.0 0.02 1.24 0.54 99 1013.5
20260831191139 60 0.0 0.0 0.02 1.24 0.54 99 1013.6
20260831190638 60 0.0 0.0 0.05 1.24 0.54 99 1013.7
20260831190136 60 0.0 0.0 0.05 1.24 0.54 99 1013.9
20260831185634 60 0.0 0.0 0.06 1.33 0.53 99 1014.1
20260831185132 60 0.0 0.0 0.06 1.33 0.53 99 1014.6
20260831184630 60 0.0 0.0 0.10 1.33 0.53 99 1013.0
20260831184129 60 0.0 0.0 0.10 1.33 0.53 99 1012.2
20260831183627 60 0.0 0.0 0.12 1.33 0.53 99 1012.0
20260831183126 60 0.0 0.0 0.12 1.33 0.53 99 1011.8
20260831182624 60 0.0 0.0 0.12 1.33 0.53 99 1011.6
20260831182122 60 0.0 0.0 0.12 1.33 0.53 99 1011.3
20260831181620 59 0.0 0.0 0.29 1.33 0.53 99 1011.6
20260831181119 59 0.0 0.0 0.28 1.32 0.52 99 1012.8
20260831180617 60 0.0 0.0 0.46 1.31 0.51 99 1014.1
20260831180116 60 0.0 0.0 0.45 1.30 0.50 99 1015.4
20260831175614 60 0.0 0.0 0.44 1.50 0.49 99 1015.7
20260831175112 60 0.0 0.0 0.42 1.48 0.47 99 1016.5
20260831174610 60 0.0 0.0 0.41 1.47 0.46 99 1016.1
20260831174109 60 0.0 0.0 0.39 1.45 0.44 99 1016.3
20260831173607 60 0.0 0.0 0.38 1.44 0.43 99 1016.5
20260831173105 60 0.0 0.0 0.37 1.43 0.42 99 1016.6
20260831172603 60 0.0 0.0 0.36 1.42 0.41 99 1015.9
20260831172102 60 0.0 0.0 0.36 1.42 0.41 99 1015.6
20260831171600 60 0.0 0.0 0.35 1.41 0.40 99 1016.4
20260831171059 61 0.0 0.0 0.24 1.29 0.29 99 1017.4
20260831170557 62 0.0 0.0 0.01 1.06 0.06 99 1016.6
20260831170055 61 0.0 0.0 0.00 1.05 0.05 99 1014.3
20260831165553 62 0.0 0.0 0.00 1.05 0.05 99 1013.6
20260831165052 62 0.0 0.0 0.00 1.05 0.05 99 1013.9
20260831164550 62 0.0 0.0 0.00 1.05 0.05 99 1013.7
20260831164049 62 0.0 0.0 0.00 1.05 0.05 99 1014.2
20260831163547 63 0.0 0.0 0.00 1.05 0.05 99 1014.3
20260831163045 63 0.0 0.0 0.00 1.05 0.05 99 1014.4
20260831162543 64 0.0 0.0 0.00 1.05 0.05 98 1014.6
20260831162042 64 0.0 0.0 0.00 1.05 0.05 96 1014.6
20260831161540 65 0.0 0.0 0.00 1.05 0.05 95 1014.6
20260831161039 65 0.0 0.0 0.00 1.05 0.05 95 1014.8
20260831160537 65 0.0 0.0 0.00 1.05 0.05 96 1015.0
20260831160035 64 0.0 0.0 0.00 1.05 0.05 96 1015.0
20260831155533 66 0.0 0.0 0.00 1.05 0.05 96 1014.9
20260831155031 66 0.0 0.0 0.00 1.05 0.05 97 1014.9
20260831154530 66 0.0 0.0 0.00 1.05 0.05 96 1015.0
20260831154028 66 0.0 0.0 0.00 1.05 0.05 97 1015.2
20260831153526 65 0.0 0.0 0.00 1.05 0.05 99 1015.4
20260831153024 64 0.0 0.0 0.00 1.05 0.05 99 1015.8
20260831152523 64 0.0 0.0 0.00 1.05 0.05 99 1015.9
20260831152021 64 0.0 0.0 0.00 1.05 0.05 99 1016.1
20260831151520 63 0.0 0.0 0.00 1.05 0.05 99 1016.4
20260831151018 62 0.0 0.0 0.00 1.05 0.05 99 1016.5
20260831150516 62 0.0 0.0 0.00 1.05 0.05 99 1016.7
20260831150015 61 0.0 0.0 0.00 1.05 0.05 99 1016.9
20260831145513 61 0.0 0.0 0.01 1.05 0.05 99 1017.1
20260831145011 61 0.0 0.0 0.01 1.05 0.05 99 1017.2
20260831144509 61 0.0 0.0 0.04 1.05 0.05 99 1017.7
20260831144007 61 0.0 0.0 0.04 1.05 0.05 99 1017.8
20260831143505 61 0.0 0.0 0.04 1.05 0.05 99 1017.8
20260831143003 61 0.0 0.0 0.04 1.05 0.05 99 1017.8
20260831142502 61 0.0 0.0 0.05 1.05 0.05 99 1017.8
20260831142000 61 0.0 0.0 0.05 1.05 0.05 99 1018.0
20260831141458 61 0.0 0.0 0.05 1.05 0.05 99 1017.9
20260831140957 60 0.0 0.0 0.05 1.05 0.05 99 1018.4
20260831140455 60 0.0 0.0 0.05 1.05 0.05 99 1018.7
20260831135953 60 0.0 0.0 0.05 1.05 0.05 99 1019.3
20260831135451 60 0.0 0.0 0.05 1.05 0.05 99 1018.9
20260831134950 61 0.0 0.0 0.04 1.04 0.04 99 1019.0
20260831134448 61 0.0 0.0 0.02 1.02 0.02 99 1018.7
20260831133946 61 0.0 0.0 0.01 1.01 0.01 99 1019.0
20260831133444 61 0.0 0.0 0.01 1.01 0.01 99 1019.3
20260831132943 62 0.0 0.0 0.01 1.01 0.01 97 1019.1
20260831132441 64 0.0 0.0 0.00 1.00 0.00 94 1018.5
20260831131939 66 0.0 0.0 0.00 1.00 0.00 92 1016.7
20260831131437 65 0.0 0.0 0.00 1.00 0.00 94 1016.5
20260831130935 64 0.0 0.0 0.00 1.00 0.00 95 1016.5
20260831130432 64 0.0 0.0 0.00 1.00 0.00 96 1016.5
20260831125930 64 0.0 0.0 0.00 1.00 0.00 96 1016.4
20260831125428 64 0.0 0.0 0.00 1.00 0.00 98 1016.6
20260831124926 63 0.0 0.0 0.00 1.00 0.00 98 1016.9
20260831124424 63 0.0 0.0 0.00 1.00 0.00 98 1017.1
20260831123922 64 0.0 0.0 0.00 1.00 0.00 98 1016.7
20260831123419 63 0.0 0.0 0.00 1.00 0.00 95 1016.6
20260831122917 64 0.0 0.0 0.00 1.00 0.00 93 1016.8
20260831122415 65 0.0 0.0 0.00 1.00 0.00 96 1016.8
20260831121913 64 0.0 0.0 0.00 1.00 0.00 97 1016.7
20260831121410 63 0.0 0.0 0.00 1.00 0.00 99 1016.5
20260831120908 62 0.0 0.0 0.00 1.00 0.00 99 1016.4
20260831120406 62 0.0 0.0 0.00 1.00 0.00 99 1016.4
20260831115903 61 0.0 0.0 0.00 1.00 0.00 99 1016.4
20260831115401 61 0.0 0.0 0.00 1.00 0.00 99 1016.5
20260831114859 61 0.0 0.0 0.00 1.00 0.00 99 1016.5
20260831114357 61 0.0 0.0 0.00 1.00 0.00 99 1016.4
20260831113856 61 0.0 0.0 0.00 1.00 0.00 99 1016.5
20260831113354 61 0.0 0.0 0.00 1.00 0.00 99 1016.3
20260831112852 61 0.0 0.0 0.00 1.00 0.00 99 1016.3
20260831112350 61 0.0 0.0 0.00 1.00 0.00 99 1016.3
20260831111849 61 0.0 0.0 0.00 1.00 0.00 99 1016.1
20260831111347 61 0.0 0.0 0.00 1.00 0.00 99 1016.2
20260831110845 61 0.0 0.0 0.00 1.00 0.00 99 1016.3
20260831110344 61 0.0 0.0 0.00 1.00 0.00 99 1016.4
20260831105842 61 0.0 0.0 0.00 1.00 0.00 99 1016.2
20260831105340 61 0.0 0.0 0.00 1.00 0.00 99 1016.0
20260831104838 60 0.0 0.0 0.00 1.00 0.00 99 1015.9
20260831104337 60 0.0 0.0 0.00 1.00 0.00 99 1016.0
20260831103835 60 0.0 0.0 0.00 1.00 0.00 99 1016.0
20260831103334 60 0.0 0.0 0.00 1.00 0.00 99 1015.9
20260831102832 60 0.0 0.0 0.00 1.00 0.00 99 1015.9
20260831102331 60 0.0 0.0 0.00 1.00 0.00 99 1015.8
20260831101829 60 0.0 0.0 0.00 1.00 0.00 99 1015.7
20260831101327 60 0.0 0.0 0.00 1.00 0.00 99 1015.8
20260831100825 60 0.0 0.0 0.00 1.00 0.00 99 1015.7
20260831100324 59 0.0 0.0 0.00 1.00 0.00 99 1015.7
20260831095822 59 0.0 0.0 0.00 1.00 0.00 99 1015.7
20260831095320 59 0.0 0.0 0.00 1.00 0.00 99 1015.6
20260831094819 59 0.0 0.0 0.00 1.00 0.00 99 1015.6
20260831094317 59 0.0 0.0 0.00 1.00 0.00 99 1015.6
20260831093815 59 0.0 0.0 0.00 1.00 0.00 99 1015.7
20260831093313 59 0.0 0.0 0.00 1.00 0.00 99 1015.9
20260831092811 59 0.0 0.0 0.00 1.00 0.00 99 1016.1
20260831092310 59 0.0 0.0 0.00 1.00 0.00 99 1016.3
20260831091808 59 0.0 0.0 0.00 1.00 0.00 99 1016.3
20260831091307 60 0.0 0.0 0.00 1.00 0.00 99 1016.4
20260831090805 60 0.0 0.0 0.00 1.00 0.00 99 1016.5
20260831090304 60 0.0 0.0 0.00 1.00 0.00 99 1016.5
20260831085801 60 0.0 0.0 0.00 1.09 0.00 99 1016.4
20260831085300 60 0.0 0.0 0.00 1.09 0.00 99 1016.4
20260831084758 60 0.0 0.0 0.00 1.09 0.00 99 1016.6
20260831084257 60 0.0 0.0 0.00 1.09 0.00 99 1016.7
20260831083755 60 0.0 0.0 0.00 1.09 0.00 99 1016.5
20260831083254 60 0.0 0.0 0.00 1.09 0.00 99 1016.6
20260831082752 60 0.0 0.0 0.00 1.09 0.00 99 1016.7
20260831082250 60 0.0 0.0 0.00 1.09 0.00 99 1016.6
20260831081749 60 0.0 0.0 0.00 1.09 0.00 99 1016.8
20260831081247 60 0.0 0.0 0.00 1.09 0.00 99 1017.1
20260831080745 60 0.0 0.0 0.00 1.09 0.00 99 1017.1
20260831080244 60 0.0 0.0 0.00 1.09 0.00 99 1017.1
20260831075742 59 0.0 0.0 0.00 1.26 0.00 99 1016.8
20260831075240 60 0.0 0.0 0.00 1.26 0.00 99 1016.8
20260831074738 60 0.0 0.0 0.00 1.26 0.00 99 1017.0
20260831074237 60 0.0 0.0 0.00 1.26 0.00 99 1017.3
20260831073735 60 0.0 0.0 0.00 1.26 0.00 99 1017.5
20260831073234 60 0.0 0.0 0.00 1.26 0.00 99 1017.6
20260831072732 60 0.0 0.0 0.00 1.26 0.00 99 1017.5
20260831072230 60 0.0 0.0 0.00 1.26 0.00 99 1017.1
20260831071729 60 0.0 0.0 0.00 1.26 0.00 99 1017.1
20260831071227 60 0.0 0.0 0.00 1.26 0.00 99 1017.2
20260831070726 60 0.0 0.0 0.00 1.26 0.00 99 1017.1
20260831070225 60 0.0 0.0 0.00 1.26 0.00 99 1017.0
20260831065723 59 0.0 0.0 0.00 1.26 0.00 99 1017.2
20260831065222 59 0.0 0.0 0.00 1.26 0.00 99 1017.4
20260831064721 59 0.0 0.0 0.00 1.26 0.00 99 1017.6
20260831064219 59 0.0 0.0 0.00 1.26 0.00 99 1017.7
20260831063718 59 0.0 0.0 0.00 1.26 0.00 99 1017.8
20260831063216 59 0.0 0.0 0.00 1.26 0.00 99 1017.8
20260831062714 59 0.0 0.0 0.00 1.26 0.00 99 1017.9
20260831062212 59 0.0 0.0 0.00 1.26 0.00 99 1018.0
20260831061711 59 0.0 0.0 0.00 1.26 0.00 99 1018.0
20260831061209 59 0.0 0.0 0.00 1.26 0.00 99 1018.4
20260831060707 59 0.0 0.0 0.00 1.26 0.00 99 1018.5
20260831060206 59 0.0 0.0 0.00 1.26 0.00 99 1018.2
20260831055704 60 0.0 0.0 0.00 1.26 0.00 99 1017.9
20260831055203 60 0.0 0.0 0.00 1.26 0.00 99 1018.5
20260831054701 60 0.0 0.0 0.00 1.26 0.00 99 1018.3
20260831054159 60 0.0 0.0 0.00 1.26 0.00 99 1018.3
20260831053657 60 0.0 0.0 0.00 1.26 0.00 99 1018.7
20260831053156 60 0.0 0.0 0.00 1.26 0.00 99 1018.6
20260831052654 60 0.0 0.0 0.00 1.26 0.00 99 1018.7
20260831052153 60 0.0 0.0 0.00 1.26 0.00 99 1018.3
20260831051651 60 0.0 0.0 0.00 1.26 0.00 99 1018.5
20260831051150 60 0.0 0.0 0.00 1.26 0.00 99 1017.5
20260831050648 60 0.0 0.0 0.00 1.26 0.00 99 1017.3
20260831050147 60 0.0 0.0 0.00 1.26 0.00 99 1017.2
20260831045645 60 0.0 0.0 0.00 1.26 0.00 99 1016.8
20260831045144 60 0.0 0.0 0.00 1.26 0.00 99 1016.8
20260831044642 60 0.0 0.0 0.00 1.26 0.00 99 1016.8
20260831044141 60 0.0 0.0 0.00 1.26 0.00 99 1016.8
20260831043639 60 0.0 0.0 0.00 1.26 0.00 99 1016.9
20260831043138 60 0.0 0.0 0.00 1.26 0.00 99 1016.9
20260831042636 60 0.0 0.0 0.00 1.26 0.00 99 1017.0
20260831042134 60 0.0 0.0 0.00 1.26 0.00 99 1016.9
20260831041633 59 0.0 0.0 0.00 1.26 0.00 99 1017.0
20260831041131 59 0.0 0.0 0.00 1.26 0.00 99 1016.9
20260831040630 60 0.0 0.0 0.00 1.26 0.00 99 1017.1
20260831040128 60 0.0 0.0 0.00 1.26 0.00 99 1017.1
20260831035627 60 0.0 0.0 0.00 1.26 0.00 99 1017.2
20260831035125 60 0.0 0.0 0.00 1.26 0.00 99 1017.3
20260831034623 60 0.0 0.0 0.00 1.26 0.00 99 1017.4
20260831034122 60 0.0 0.0 0.00 1.26 0.00 99 1017.7
20260831033620 59 0.0 0.0 0.00 1.26 0.00 99 1017.6
20260831033119 60 0.0 0.0 0.00 1.26 0.00 99 1017.6
20260831032617 59 0.0 0.0 0.00 1.26 0.00 99 1017.3
20260831032116 60 0.0 0.0 0.00 1.26 0.00 99 1017.3
20260831031614 60 0.0 0.0 0.08 1.26 0.00 99 1017.5
20260831031112 60 0.0 0.0 0.08 1.26 0.00 99 1017.8
20260831030611 60 0.0 0.0 0.26 1.26 0.00 99 1018.0
20260831030109 60 0.0 0.0 0.26 1.26 0.00 99 1018.2
20260831025607 59 0.0 0.0 0.26 1.26 1.26 99 1018.3
20260831025106 60 0.0 0.0 0.26 1.26 1.26 99 1018.0
20260831024604 60 0.0 0.0 0.27 1.26 1.26 99 1017.8
20260831024103 60 0.0 0.0 0.27 1.26 1.26 99 1017.9
20260831023601 60 0.0 0.0 0.29 1.26 1.26 99 1018.0
20260831023100 60 0.0 0.0 0.29 1.26 1.26 99 1018.2
20260831022558 60 0.0 0.0 0.29 1.26 1.26 99 1018.7
20260831022056 60 0.0 0.0 0.29 1.26 1.26 99 1018.8
20260831021555 60 0.0 0.0 0.28 1.25 1.25 99 1018.3
20260831021053 60 0.0 0.0 0.24 1.21 1.21 99 1018.4
20260831020552 60 0.0 0.0 0.06 1.03 1.03 99 1019.6
20260831020050 60 0.0 0.0 0.03 1.00 1.00 99 1018.4
20260831015547 60 0.0 0.0 0.03 1.00 1.00 99 1017.3
20260831015045 60 0.0 0.0 0.03 1.00 1.00 99 1017.1
20260831014543 60 0.0 0.0 0.02 0.99 0.99 99 1017.0
20260831014041 60 0.0 0.0 0.02 0.99 0.99 99 1017.1
20260831013538 60 0.0 0.0 0.02 0.99 0.99 99 1017.0
20260831013036 60 0.0 0.0 0.00 0.97 0.97 99 1017.0
20260831012533 60 0.0 0.0 0.00 0.97 0.97 99 1017.0
20260831012031 60 0.0 0.0 0.00 0.97 0.97 99 1016.9
20260831011529 60 0.0 0.0 0.00 0.97 0.97 99 1016.9
20260831011027 60 0.0 0.0 0.00 0.97 0.97 99 1017.1
20260831010525 60 0.0 0.0 0.03 0.97 0.97 99 1017.3
20260831010023 60 0.0 0.0 0.03 0.97 0.97 99 1017.5
20260831005520 59 0.0 0.0 0.03 0.97 0.97 99 1017.5
20260831005018 59 0.0 0.0 0.03 0.97 0.97 99 1017.4
20260831004515 59 0.0 0.0 0.03 0.97 0.97 99 1017.4
20260831004013 59 0.0 0.0 0.03 0.97 0.97 99 1017.4
20260831003510 59 0.0 0.0 0.03 0.97 0.97 99 1017.3
20260831003007 59 0.0 0.0 0.03 0.97 0.97 99 1017.8
20260831002505 59 0.0 0.0 0.04 0.97 0.97 99 1018.1
20260831002003 59 0.0 0.0 0.04 0.97 0.97 99 1018.0
20260831001500 59 0.0 0.0 0.04 0.97 0.97 99 1017.7
20260831000958 59 0.0 0.0 0.05 0.97 0.97 99 1018.0
20260831000456 59 0.0 0.0 0.04 0.96 0.96 99 1018.2
20260830235953 59 0.0 0.0 0.02 0.94 0.94 99 1018.5
20260830235451 60 0.0 0.0 0.02 0.94 0.94 99 1018.7
20260830234948 60 0.0 0.0 0.02 0.94 0.94 99 1017.9
20260830234446 60 0.0 0.0 0.02 0.94 0.94 99 1017.4
20260830233944 59 0.0 0.0 0.02 0.94 0.94 99 1017.5
20260830233441 59 0.0 0.0 0.02 0.94 0.94 99 1017.6
20260830232939 59 0.0 0.0 0.02 0.94 0.94 99 1017.9
20260830232437 60 0.0 0.0 0.01 0.94 0.94 99 1018.8
20260830231936 60 0.0 0.0 0.01 0.94 0.94 99 1018.0
20260830231435 60 0.0 0.0 0.01 0.94 0.94 99 1017.9